BEIDOU 15 (C14)

Last updated on Mon Feb 13 2023 00:03:21 GMT+0000 (Coordinated Universal Time)

1 38775U 12050B 23042.26813794 -.00000002 00000+0 00000+0 0 9990 2 38775 55.5491 103.6523 0012891 322.4853 42.3030 1.86231202 70913

Satellite not in orbit

BEIDOU 15 (C14)